User: anonymous   Login
Location: *
(35.8942°N, 23.3025°E)
Time: 15:18:14
(UTC+00:00)
Language:

Tiangong - Orbit

View from above orbital plane
View from above orbital plane
View from above satellite
View from above satellite

Ground track
Ground track

The orbit data is extracted from the following two-line orbital elements,

1 48274U 21035A   22021.18184840  .00015515  00000-0  18322-3 0  9993
2 48274  41.4704  34.6239 0002550 124.3579 322.1423 15.60978471 41782
Epoch (UTC): 21 January 2022 04:21:51
Eccentricity: 0.0002550
inclination: 41.4704°
perigee height: 383 km
apogee height: 386 km
right ascension of ascending node: 34.6239°
argument of perigee: 124.3579°
revolutions per day: 15.60978471
mean anomaly at epoch: 322.1423°
orbit number at epoch: 4178

The dashed part of the orbit path shows where the satellite is in the earth's shadow,  

DLR